Weather History for KPIL - April, 2013

Change the Weather History Date:

Friday, April 5, 2013

  Actual Average Record
Temperature  
Mean Temperature 64 °F -  
Max Temperature 73 °F - - ()
Min Temperature 55 °F - - ()
Degree Days  
Heating Degree Days 2    
Growing Degree Days 14 (Base 50)    
Moisture  
Dew Point 54 °F    
Average Humidity 67    
Maximum Humidity 83    
Minimum Humidity 51    
Precipitation  
Precipitation 0.00 in - - ()
Sea Level Pressure  
Sea Level Pressure 30.17 in    
Wind  
Wind Speed 6 mph (ENE)    
Max Wind Speed 14 mph    
Max Gust Speed 18 mph    
Visibility 10 miles    
Events      
T = Trace of Precipitation, MM = Missing Value Source: NWS Daily Summary

Daily Weather History Graph

Daily Weather History Graph

Search for Another Location

Airport or City:

Trip Planner

Search our weather history database for the weather conditions in past years. The results will help you decide how hot, cold, wet, or windy it might be!

Date:

Astronomy

Apr. 05, 2013 Rise Set
Actual Time 7:15 AM CDT 7:48 PM CDT
Civil Twilight 6:52 AM CDT 8:11 PM CDT
Nautical Twilight 6:25 AM CDT 8:38 PM CDT
Astronomical Twilight 5:57 AM CDT 9:06 PM CDT
Moon 3:57 AM CDT (4/5) 3:37 PM CDT (4/5)
Length of Visible Light 13h 18m
Length of Day
12h 32m
Waning Crescent, 23% of the Moon is Illuminated
Apr 5
Waning Crescent
Apr 10
New
Apr 18
First Quarter
Apr 25
Full
May 2
Last Quarter

Hourly Weather History & Observations

Time (CDT) Temp. Dew Point Humidity Pressure Visibility Wind Dir Wind Speed Gust Speed Precip Events Conditions
12:53 AM 64.0 °F 54.0 °F 70% 30.17 in 10.0 mi ENE 5.8 mph - N/A   Partly Cloudy
1:53 AM 63.0 °F 54.0 °F 72% 30.19 in 10.0 mi ENE 3.5 mph - N/A   Scattered Clouds
2:53 AM 60.1 °F 53.1 °F 78% 30.18 in 10.0 mi NE 6.9 mph - N/A   Clear
3:53 AM 59.0 °F 52.0 °F 78% 30.18 in 10.0 mi NE 5.8 mph - N/A   Clear
4:53 AM 59.0 °F 52.0 °F 78% 30.18 in 10.0 mi Calm Calm - N/A   Clear
5:53 AM 57.0 °F 51.1 °F 81% 30.18 in 10.0 mi Calm Calm - N/A   Clear
6:53 AM 55.9 °F 50.0 °F 80% 30.20 in 10.0 mi NW 3.5 mph - N/A   Clear
7:53 AM 55.0 °F 50.0 °F 83% 30.22 in 10.0 mi NW 4.6 mph - N/A   Clear
8:37 AM 62.6 °F 55.4 °F 77% 30.24 in 10.0 mi North 3.5 mph - N/A   Mostly Cloudy
8:53 AM 63.0 °F 55.0 °F 75% 30.24 in 10.0 mi North 4.6 mph - N/A   Mostly Cloudy
9:28 AM 66.2 °F 53.6 °F 64% 30.24 in 10.0 mi Variable 6.9 mph - N/A   Scattered Clouds
9:53 AM 68.0 °F 53.1 °F 59% 30.25 in 10.0 mi NNE 8.1 mph - N/A   Partly Cloudy
10:53 AM 68.0 °F 53.1 °F 59% 30.26 in 10.0 mi Variable 3.5 mph - N/A   Partly Cloudy
11:53 AM 72.0 °F 53.1 °F 51% 30.25 in 10.0 mi NE 11.5 mph - N/A   Clear
12:53 PM 71.1 °F 53.1 °F 53% 30.22 in 10.0 mi NE 9.2 mph 17.3 mph N/A   Clear
1:53 PM 72.0 °F 53.1 °F 51% 30.19 in 10.0 mi ENE 11.5 mph - N/A   Clear
2:53 PM 71.1 °F 53.1 °F 53% 30.16 in 10.0 mi ENE 9.2 mph - N/A   Clear
3:53 PM 70.0 °F 54.0 °F 57% 30.14 in 10.0 mi East 10.4 mph - N/A   Clear
4:53 PM 71.1 °F 54.0 °F 55% 30.11 in 10.0 mi ENE 13.8 mph - N/A   Clear
5:53 PM 70.0 °F 55.0 °F 59% 30.09 in 10.0 mi East 12.7 mph - N/A   Clear
6:53 PM 69.1 °F 55.0 °F 61% 30.09 in 10.0 mi East 11.5 mph 18.4 mph N/A   Clear
7:53 PM 66.0 °F 55.0 °F 68% 30.09 in 10.0 mi East 10.4 mph - N/A   Clear
8:53 PM 66.0 °F 55.9 °F 70% 30.09 in 10.0 mi East 11.5 mph - N/A   Clear
9:53 PM 66.0 °F 57.0 °F 73% 30.11 in 10.0 mi ESE 8.1 mph - N/A   Clear
10:53 PM 66.0 °F 57.0 °F 73% 30.12 in 10.0 mi SE 6.9 mph - N/A   Clear
11:53 PM 66.9 °F 57.9 °F 73% 30.10 in 10.0 mi SE 11.5 mph - N/A   Clear